[Date Prev][Date Next][Thread Prev][Thread Next] - [Date Index][Thread Index][Author Index]
2 Line ISS Keps 10-12
- Subject: [sarex] 2 Line ISS Keps 10-12
- From: "Dave Larsen PhD" <doc@xxxxxxxxxxx>
- Date: Sun, 12 Oct 2003 03:41:47 -0700
ISS
1 25544U 98067A 03285.41903935 .00015949 00000-0 18228-3 0 6261
2 25544 51.6299 149.4405 0006468 31.6824 335.5629 15.62332952279323
----
Via the sarex mailing list at AMSAT.ORG courtesy of AMSAT-NA.
To unsubscribe, send "unsubscribe sarex" to Majordomo@amsat.org
AMSAT Home